Tracking 29892 objects as of 21-Nov-2024
HD Live streaming from Space Station
objects crossing your sky now

COSMOS 1247 DEB

Track COSMOS 1247 DEB now!


NORAD ID: 12984
Int'l Code: 1981-016F
Perigee: 3,419.1 km
Apogee: 36,591.8 km
Inclination: 68.2 °
Period: 710.5 minutes
Semi major axis: 26376 km
RCS: 2.5774 m2 (large)
Launch date: February 19, 1981
Source: Commonwealth of Independent States (former USSR) (CIS)
Launch site: PLESETSK MISSILE AND SPACE COMPLEX (PKMTR)

Note: This is SATELLITE DEBRIS
Your satellite tracking list
Your tracking list is empty




NASA's NSSDC Master Catalog

Two Line Element Set (TLE):
1 12984U 81016F   24325.12870426 -.00000628  00000-0  00000-0 0  9993
2 12984  68.2475  45.4864 6288309 355.5130   0.9034  2.02665015318338
Source of the keplerian elements: AFSPC